When you browse on this site, cookies collect data to enhance your experience and personalize the content and advertising you see.
Visit our Privacy Policy to learn more. By continuing to use the site, you agree to this use of cookies and data.
  • In Romania
  • List of Countries
  • For 7 days
  • Water Temperature
  • Weather Map
  • Weather Widgets
  • user-avatar
    Login

    Hourly Weather Dedilovskie Vyselki

    Today, 17 October, Thursday

    Time Temperature Precipitation Wind Pressure Humidity
    00:00 +7°C° 0 mm 6 mps 747 mmHg 73%
    01:00 +7°C° 0 mm 6 mps 746 mmHg 76%
    02:00 +7°C° 0 mm 6 mps 746 mmHg 80%
    03:00 +7°C° 0 mm 6 mps 746 mmHg 85%
    04:00 +7°C° 0 mm 6 mps 746 mmHg 87%
    05:00 +7°C° 0 mm 6 mps 745 mmHg 89%
    06:00 +7°C° 0 mm 6 mps 745 mmHg 91%
    07:00 +8°C° 0 mm 6 mps 745 mmHg 90%
    08:00 +8°C° 0 mm 6 mps 745 mmHg 89%
    09:00 +9°C° 0 mm 6 mps 745 mmHg 87%
    10:00 +10°C° 0 mm 6 mps 744 mmHg 82%
    11:00 +13°C° 0 mm 6 mps 744 mmHg 77%
    12:00 +14°C° 0 mm 6 mps 744 mmHg 73%
    13:00 +15°C° 0 mm 6 mps 744 mmHg 71%
    14:00 +15°C° 0 mm 6 mps 743 mmHg 70%
    15:00 +17°C° 0 mm 5 mps 743 mmHg 68%
    16:00 +16°C° 0 mm 5 mps 743 mmHg 73%
    17:00 +15°C° 0 mm 5 mps 742 mmHg 77%
    18:00 +14°C° 0 mm 6 mps 742 mmHg 82%
    19:00 +14°C° 0 mm 6 mps 742 mmHg 81%
    20:00 +13°C° 0 mm 5 mps 742 mmHg 80%
    21:00 +13°C° 0 mm 5 mps 742 mmHg 79%
    22:00 +12°C° 0 mm 5 mps 742 mmHg 82%
    23:00 +11°C° 0 mm 4 mps 742 mmHg 85%

    Tomorrow, 18 October, Friday

    Time Temperature Precipitation Wind Pressure Humidity
    00:00 +11°C° 0 mm 4 mps 742 mmHg 88%
    01:00 +10°C° 0 mm 4 mps 742 mmHg 89%
    02:00 +10°C° 0 mm 4 mps 742 mmHg 91%
    03:00 +10°C° 0 mm 4 mps 742 mmHg 92%
    04:00 +10°C° 0 mm 4 mps 742 mmHg 93%
    05:00 +8°C° 0 mm 4 mps 742 mmHg 93%
    06:00 +8°C° 0 mm 4 mps 742 mmHg 93%
    07:00 +8°C° 0 mm 4 mps 742 mmHg 92%
    08:00 +10°C° 0 mm 4 mps 742 mmHg 91%
    09:00 +10°C° 0 mm 4 mps 743 mmHg 90%
    10:00 +11°C° 0 mm 4 mps 743 mmHg 86%
    11:00 +12°C° 0 mm 4 mps 743 mmHg 82%
    12:00 +13°C° 0 mm 4 mps 743 mmHg 78%
    13:00 +13°C° 0 mm 4 mps 743 mmHg 77%
    14:00 +14°C° 0 mm 3 mps 743 mmHg 76%
    15:00 +14°C° 0 mm 3 mps 743 mmHg 76%
    16:00 +13°C° 0 mm 3 mps 743 mmHg 80%
    17:00 +12°C° 0 mm 3 mps 744 mmHg 84%
    18:00 +12°C° 0 mm 2 mps 744 mmHg 89%
    19:00 +12°C° 0 mm 2 mps 744 mmHg 90%
    20:00 +12°C° 0 mm 2 mps 744 mmHg 90%
    21:00 +12°C° 0 mm 2 mps 745 mmHg 91%
    22:00 +10°C° 0 mm 2 mps 745 mmHg 92%
    23:00 +11°C° 0 mm 1 mps 745 mmHg 93%

    Day after tomorrow, 19 October, Saturday

    Time Temperature Precipitation Wind Pressure Humidity
    00:00 +10°C° 0 mm 1 mps 745 mmHg 93%
    01:00 +10°C° 0 mm 1 mps 745 mmHg 94%
    02:00 +10°C° 0 mm 1 mps 745 mmHg 94%
    03:00 +10°C° 0 mm 1 mps 746 mmHg 94%
    04:00 +9°C° 0 mm 1 mps 746 mmHg 94%
    05:00 +9°C° 0 mm 1 mps 746 mmHg 94%
    06:00 +9°C° 0 mm 1 mps 746 mmHg 94%
    07:00 +10°C° 0 mm 1 mps 746 mmHg 93%
    08:00 +10°C° 0 mm 1 mps 746 mmHg 92%
    09:00 +11°C° 0 mm 1 mps 747 mmHg 90%
    10:00 +12°C° 0 mm 1 mps 747 mmHg 85%
    11:00 +13°C° 0 mm 2 mps 747 mmHg 80%
    12:00 +14°C° 0 mm 2 mps 747 mmHg 75%
    13:00 +14°C° 0 mm 2 mps 747 mmHg 74%
    14:00 +15°C° 0 mm 2 mps 747 mmHg 73%
    15:00 +15°C° 0 mm 2 mps 747 mmHg 71%
    16:00 +14°C° 0 mm 2 mps 747 mmHg 76%
    17:00 +13°C° 0 mm 2 mps 747 mmHg 80%
    18:00 +12°C° 0 mm 2 mps 747 mmHg 85%
    19:00 +12°C° 0 mm 2 mps 747 mmHg 86%
    20:00 +12°C° 0 mm 2 mps 747 mmHg 88%
    21:00 +10°C° 0 mm 3 mps 747 mmHg 89%
    22:00 +10°C° 0 mm 3 mps 747 mmHg 90%
    23:00 +10°C° 0 mm 3 mps 748 mmHg 91%

    20 October, Sunday

    Time Temperature Precipitation Wind Pressure Humidity
    00:00 +10°C° 0 mm 3 mps 748 mmHg 91%
    01:00 +9°C° 0 mm 3 mps 748 mmHg 92%
    02:00 +9°C° 0 mm 3 mps 748 mmHg 92%
    03:00 +9°C° 0 mm 3 mps 748 mmHg 93%
    04:00 +9°C° 0 mm 3 mps 748 mmHg 93%
    05:00 +9°C° 0 mm 3 mps 748 mmHg 93%
    06:00 +8°C° 0 mm 3 mps 748 mmHg 94%
    07:00 +9°C° 0 mm 3 mps 748 mmHg 91%
    08:00 +9°C° 0 mm 3 mps 748 mmHg 89%
    09:00 +10°C° 0 mm 4 mps 748 mmHg 87%
    10:00 +11°C° 0 mm 4 mps 748 mmHg 83%
    11:00 +12°C° 0 mm 4 mps 748 mmHg 78%
    12:00 +13°C° 0 mm 4 mps 748 mmHg 74%
    13:00 +14°C° 0 mm 4 mps 748 mmHg 73%
    14:00 +14°C° 0 mm 4 mps 748 mmHg 71%
    15:00 +15°C° 0 mm 4 mps 747 mmHg 70%
    16:00 +14°C° 0 mm 4 mps 747 mmHg 74%
    17:00 +13°C° 0 mm 4 mps 747 mmHg 78%
    18:00 +12°C° 0 mm 3 mps 747 mmHg 82%
    19:00 +12°C° 0 mm 4 mps 747 mmHg 83%
    20:00 +12°C° 0 mm 4 mps 747 mmHg 85%
    21:00 +11°C° 0 mm 4 mps 747 mmHg 86%
    22:00 +11°C° 0 mm 4 mps 747 mmHg 86%
    23:00 +11°C° 0 mm 4 mps 747 mmHg 87%

    21 October, Monday

    Time Temperature Precipitation Wind Pressure Humidity
    00:00 +11°C° 0 mm 4 mps 747 mmHg 87%
    01:00 +11°C° 0 mm 4 mps 747 mmHg 88%
    02:00 +10°C° 0 mm 4 mps 747 mmHg 89%
    03:00 +10°C° 0 mm 4 mps 747 mmHg 89%
    04:00 +10°C° 0 mm 4 mps 747 mmHg 90%
    05:00 +10°C° 0 mm 4 mps 746 mmHg 90%
    06:00 +10°C° 0 mm 4 mps 746 mmHg 90%
    07:00 +10°C° 0 mm 4 mps 746 mmHg 87%
    08:00 +11°C° 0 mm 4 mps 746 mmHg 84%
    09:00 +11°C° 0 mm 4 mps 746 mmHg 80%
    10:00 +12°C° 0 mm 5 mps 746 mmHg 75%
    11:00 +14°C° 0 mm 5 mps 746 mmHg 69%
    12:00 +15°C° 0 mm 5 mps 746 mmHg 64%
    13:00 +15°C° 0 mm 5 mps 746 mmHg 63%
    14:00 +16°C° 0 mm 5 mps 746 mmHg 61%
    15:00 +16°C° 0 mm 5 mps 745 mmHg 60%
    16:00 +15°C° 0 mm 5 mps 745 mmHg 64%
    17:00 +14°C° 0 mm 5 mps 745 mmHg 67%
    18:00 +13°C° 0 mm 5 mps 745 mmHg 71%
    19:00 +13°C° 0 mm 5 mps 744 mmHg 73%
    20:00 +13°C° 0 mm 5 mps 744 mmHg 74%
    21:00 +12°C° 0 mm 5 mps 744 mmHg 75%
    22:00 +12°C° 0 mm 5 mps 744 mmHg 76%
    23:00 +12°C° 0 mm 5 mps 743 mmHg 76%

    22 October, Tuesday

    Time Temperature Precipitation Wind Pressure Humidity
    00:00 +11°C° 0 mm 6 mps 743 mmHg 76%
    01:00 +11°C° 0 mm 6 mps 742 mmHg 76%
    02:00 +10°C° 0 mm 6 mps 742 mmHg 77%
    03:00 +10°C° 0 mm 6 mps 742 mmHg 78%
    04:00 +10°C° 0 mm 6 mps 741 mmHg 78%
    05:00 +10°C° 0 mm 6 mps 741 mmHg 79%
    06:00 +10°C° 0 mm 6 mps 741 mmHg 79%
    07:00 +10°C° 0 mm 6 mps 740 mmHg 79%
    08:00 +10°C° 0 mm 6 mps 740 mmHg 78%
    09:00 +10°C° 0 mm 6 mps 740 mmHg 78%
    10:00 +11°C° 0 mm 6 mps 739 mmHg 76%
    11:00 +11°C° 0 mm 6 mps 739 mmHg 74%
    12:00 +13°C° 0 mm 6 mps 738 mmHg 73%
    13:00 +13°C° 0 mm 6 mps 738 mmHg 75%
    14:00 +13°C° 0 mm 6 mps 738 mmHg 77%
    15:00 +13°C° 0 mm 6 mps 738 mmHg 79%
    16:00 +11°C° 0.2 mm 6 mps 739 mmHg 80%
    17:00 +10°C° 0.2 mm 6 mps 740 mmHg 81%
    18:00 +10°C° 0.2 mm 7 mps 741 mmHg 82%
    19:00 +9°C° 0 mm 6 mps 742 mmHg 82%
    20:00 +8°C° 0 mm 6 mps 743 mmHg 82%
    21:00 +7°C° 0 mm 6 mps 744 mmHg 82%
    22:00 +7°C° 0 mm 5 mps 744 mmHg 82%
    23:00 +6°C° 0 mm 5 mps 745 mmHg 82%
    Show more